| time (UTC) | temp F | wind direction | speed knots | gust knots | rain 1hr in | rain 24hr in | rain mn in | humidity % | barometer mb |
| 20260906181241 | 90 | 160 | 0.9 | 2.6 | 0.00 | 0.79 | 0.00 | 73 | 1009.8 |
| 20260906180741 | 90 | 170 | 0.9 | 1.7 | 0.00 | 0.79 | 0.00 | 70 | 1010.2 |
| 20260906180240 | 89 | 75 | 0.9 | 1.7 | 0.00 | 0.79 | 0.00 | 71 | 1010.2 |
| 20260906175738 | 89 | 246 | 0.0 | 1.7 | 0.00 | 0.79 | 0.00 | 74 | 1010.2 |
| 20260906175238 | 88 | 153 | 0.9 | 1.7 | 0.00 | 0.79 | 0.00 | 75 | 1010.2 |
| 20260906174706 | 88 | 68 | 0.9 | 2.6 | 0.00 | 0.79 | 0.00 | 73 | 1010.2 |
| 20260906174205 | 88 | 163 | 0.9 | 2.6 | 0.00 | 0.79 | 0.00 | 75 | 1010.5 |
| 20260906173704 | 87 | 174 | 0.9 | 1.7 | 0.00 | 0.79 | 0.00 | 76 | 1010.5 |
| 20260906173203 | 87 | 188 | 0.9 | 1.7 | 0.00 | 0.79 | 0.00 | 77 | 1010.5 |
| 20260906172629 | 88 | 222 | 0.9 | 1.7 | 0.00 | 0.79 | 0.00 | 80 | 1010.5 |
| 20260906172128 | 88 | 213 | 0.9 | 1.7 | 0.00 | 0.79 | 0.00 | 76 | 1010.5 |
| 20260906171626 | 88 | 124 | 0.9 | 2.6 | 0.00 | 0.79 | 0.00 | 79 | 1010.5 |
| 20260906171124 | 87 | 84 | 0.9 | 2.6 | 0.00 | 0.79 | 0.00 | 80 | 1010.5 |
| 20260906170623 | 86 | 359 | 0.9 | 2.6 | 0.00 | 0.79 | 0.00 | 81 | 1010.8 |
| 20260906170122 | 85 | 172 | 0.9 | 2.6 | 0.00 | 0.79 | 0.00 | 85 | 1010.8 |
| 20260906165620 | 85 | 168 | 0.9 | 2.6 | 0.00 | 0.79 | 0.00 | 89 | 1010.8 |
| 20260906165119 | 85 | 198 | 0.9 | 2.6 | 0.00 | 0.79 | 0.00 | 92 | 1010.8 |
| 20260906164618 | 84 | 252 | 0.9 | 2.6 | 0.00 | 0.79 | 0.00 | 93 | 1011.2 |
| 20260906164117 | 84 | 166 | 1.7 | 2.6 | 0.00 | 0.79 | 0.00 | 94 | 1011.2 |
| 20260906163615 | 84 | 238 | 0.9 | 1.7 | 0.00 | 0.79 | 0.00 | 95 | 1011.2 |
| 20260906163042 | 83 | 242 | 0.9 | 1.7 | 0.00 | 0.79 | 0.00 | 94 | 1011.2 |
| 20260906162542 | 83 | 184 | 0.9 | 1.7 | 0.00 | 0.79 | 0.00 | 94 | 1011.2 |
| 20260906162040 | 83 | 230 | 0.9 | 2.6 | 0.00 | 0.79 | 0.00 | 94 | 1011.2 |
| 20260906161539 | 82 | 247 | 0.9 | 2.6 | 0.00 | 0.79 | 0.00 | 94 | 1011.2 |
| 20260906161038 | 83 | 265 | 0.9 | 3.5 | 0.00 | 0.79 | 0.00 | 94 | 1011.2 |
| 20260906160537 | 82 | 181 | 0.9 | 3.5 | 0.00 | 0.79 | 0.00 | 94 | 1011.2 |
| 20260906155933 | 82 | 104 | 0.9 | 3.5 | 0.00 | 0.79 | 0.79 | 94 | 1011.2 |
| 20260906155329 | 82 | 297 | 0.9 | 0.9 | 0.00 | 0.79 | 0.79 | 94 | 1011.2 |
| 20260906154828 | 81 | 135 | 0.9 | 2.6 | 0.00 | 0.79 | 0.79 | 94 | 1011.5 |
| 20260906154327 | 81 | 279 | 0.9 | 2.6 | 0.00 | 0.79 | 0.79 | 95 | 1011.5 |
| 20260906153825 | 81 | 97 | 0.0 | 2.6 | 0.00 | 0.79 | 0.79 | 95 | 1011.2 |
| 20260906153324 | 81 | 160 | 1.7 | 2.6 | 0.00 | 0.79 | 0.79 | 94 | 1011.5 |
| 20260906152823 | 81 | 181 | 0.0 | 0.9 | 0.00 | 0.79 | 0.79 | 95 | 1011.5 |
| 20260906152321 | 80 | 189 | 0.9 | 1.7 | 0.00 | 0.79 | 0.79 | 95 | 1011.5 |
| 20260906151820 | 80 | 23 | 0.9 | 2.6 | 0.00 | 0.79 | 0.79 | 95 | 1011.5 |
| 20260906151318 | 79 | 23 | 0.0 | 2.6 | 0.00 | 0.79 | 0.79 | 95 | 1011.5 |
| 20260906150817 | 79 | 23 | 0.9 | 2.6 | 0.00 | 0.79 | 0.79 | 94 | 1011.5 |
| 20260906150316 | 79 | 46 | 1.7 | 3.5 | 0.00 | 0.79 | 0.79 | 95 | 1011.5 |
| 20260906145815 | 79 | 146 | 0.0 | 3.5 | 0.00 | 0.79 | 0.79 | 95 | 1011.5 |
| 20260906145314 | 79 | 76 | 0.9 | 2.6 | 0.00 | 0.79 | 0.79 | 95 | 1011.5 |
| 20260906144813 | 78 | 84 | 0.9 | 1.7 | 0.00 | 0.79 | 0.79 | 95 | 1011.5 |
| 20260906144209 | 78 | 48 | 0.0 | 2.6 | 0.00 | 0.79 | 0.79 | 96 | 1011.9 |
| 20260906143708 | 78 | 36 | 0.9 | 2.6 | 0.00 | 0.79 | 0.79 | 96 | 1011.9 |
| 20260906143206 | 77 | 17 | 0.9 | 2.6 | 0.00 | 0.79 | 0.79 | 96 | 1011.9 |
| 20260906142705 | 77 | 11 | 1.7 | 2.6 | 0.00 | 0.79 | 0.79 | 96 | 1011.9 |
| 20260906142204 | 77 | 20 | 0.9 | 1.7 | 0.00 | 0.79 | 0.79 | 95 | 1011.9 |
| 20260906141701 | 77 | 9 | 0.9 | 1.7 | 0.00 | 0.79 | 0.79 | 95 | 1011.9 |
| 20260906141159 | 77 | 72 | 0.9 | 1.7 | 0.00 | 0.79 | 0.79 | 95 | 1011.9 |
| 20260906140658 | 76 | 82 | 0.9 | 1.7 | 0.00 | 0.79 | 0.79 | 95 | 1011.9 |
| 20260906140157 | 76 | 78 | 1.7 | 1.7 | 0.00 | 0.79 | 0.79 | 95 | 1011.9 |
| 20260906135625 | 76 | 7 | 0.9 | 0.9 | 0.00 | 0.79 | 0.79 | 95 | 1011.9 |
| 20260906135124 | 76 | 359 | 0.9 | 0.9 | 0.00 | 0.79 | 0.79 | 96 | 1011.9 |
| 20260906134552 | 75 | 22 | 0.9 | 0.9 | 0.00 | 0.79 | 0.79 | 96 | 1011.9 |
| 20260906134051 | 75 | 22 | 0.9 | 1.7 | 0.00 | 0.79 | 0.79 | 96 | 1011.9 |
| 20260906133519 | 74 | 22 | 0.9 | 1.7 | 0.00 | 0.79 | 0.79 | 96 | 1011.9 |
| 20260906133017 | 74 | 22 | 0.9 | 1.7 | 0.00 | 0.79 | 0.79 | 96 | 1011.9 |
| 20260906132516 | 73 | 22 | 0.9 | 1.7 | 0.00 | 0.79 | 0.79 | 96 | 1011.9 |
| 20260906132014 | 73 | 18 | 0.9 | 1.7 | 0.00 | 0.79 | 0.79 | 96 | 1011.9 |
| 20260906131513 | 73 | 25 | 0.9 | 1.7 | 0.00 | 0.79 | 0.79 | 96 | 1011.9 |
| 20260906131010 | 73 | 16 | 0.9 | 1.7 | 0.00 | 0.79 | 0.79 | 96 | 1011.9 |
| 20260906130508 | 73 | 103 | 0.9 | 0.9 | 0.00 | 0.79 | 0.79 | 96 | 1011.9 |
| 20260906130007 | 73 | 103 | 0.0 | 0.9 | 0.00 | 0.79 | 0.79 | 96 | 1011.9 |
| 20260906125506 | 72 | 103 | 0.0 | 0.9 | 0.00 | 0.79 | 0.79 | 96 | 1011.9 |
| 20260906125005 | 71 | 103 | 0.0 | 0.9 | 0.00 | 0.79 | 0.79 | 96 | 1011.9 |
| 20260906124504 | 71 | 103 | 0.0 | 0.0 | 0.00 | 0.79 | 0.79 | 96 | 1011.9 |
| 20260906124002 | 71 | 103 | 0.0 | 0.0 | 0.00 | 0.79 | 0.79 | 96 | 1011.9 |
| 20260906123500 | 70 | 103 | 0.0 | 0.0 | 0.00 | 0.79 | 0.79 | 96 | 1011.9 |
| 20260906122927 | 70 | 103 | 0.0 | 0.0 | 0.00 | 0.79 | 0.79 | 96 | 1011.9 |
| 20260906122426 | 70 | 103 | 0.0 | 0.9 | 0.00 | 0.79 | 0.79 | 96 | 1011.9 |
| 20260906121925 | 70 | 103 | 0.0 | 0.9 | 0.00 | 0.79 | 0.79 | 96 | 1011.5 |
| 20260906121424 | 70 | 103 | 0.0 | 0.9 | 0.00 | 0.79 | 0.79 | 96 | 1011.2 |
| 20260906120922 | 69 | 103 | 0.0 | 0.9 | 0.00 | 0.79 | 0.79 | 96 | 1011.5 |
| 20260906120420 | 69 | 103 | 0.9 | 0.9 | 0.00 | 0.79 | 0.79 | 96 | 1011.5 |
| 20260906115919 | 69 | 103 | 0.0 | 0.0 | 0.00 | 0.79 | 0.79 | 96 | 1011.2 |
| 20260906115347 | 69 | 103 | 0.0 | 0.0 | 0.00 | 0.79 | 0.79 | 96 | 1011.2 |
| 20260906114744 | 69 | 103 | 0.0 | 0.0 | 0.00 | 0.79 | 0.79 | 96 | 1011.2 |
| 20260906114242 | 69 | 103 | 0.0 | 0.0 | 0.00 | 0.79 | 0.79 | 96 | 1011.2 |
| 20260906113741 | 69 | 103 | 0.0 | 0.0 | 0.00 | 0.79 | 0.79 | 96 | 1011.2 |
| 20260906113239 | 69 | 103 | 0.0 | 0.0 | 0.00 | 0.79 | 0.79 | 96 | 1011.2 |
| 20260906112737 | 69 | 103 | 0.0 | 0.0 | 0.00 | 0.79 | 0.79 | 96 | 1011.2 |
| 20260906112236 | 69 | 103 | 0.0 | 0.0 | 0.00 | 0.79 | 0.79 | 96 | 1010.8 |
| 20260906111703 | 69 | 103 | 0.0 | 0.9 | 0.00 | 0.79 | 0.79 | 96 | 1010.8 |
| 20260906111202 | 69 | 103 | 0.0 | 0.9 | 0.00 | 0.79 | 0.79 | 96 | 1010.8 |
| 20260906110701 | 69 | 103 | 0.0 | 0.9 | 0.00 | 0.79 | 0.79 | 96 | 1010.8 |
| 20260906110128 | 69 | 103 | 0.0 | 0.0 | 0.00 | 0.79 | 0.79 | 96 | 1010.8 |
| 20260906105628 | 69 | 103 | 0.0 | 0.0 | 0.00 | 0.79 | 0.79 | 96 | 1010.8 |
| 20260906105055 | 69 | 103 | 0.0 | 0.0 | 0.00 | 0.79 | 0.79 | 96 | 1010.5 |
| 20260906104554 | 69 | 103 | 0.0 | 0.0 | 0.00 | 0.79 | 0.79 | 96 | 1010.5 |
| 20260906104053 | 69 | 103 | 0.0 | 0.9 | 0.00 | 0.79 | 0.79 | 96 | 1010.5 |
| 20260906103520 | 69 | 103 | 0.0 | 0.9 | 0.00 | 0.79 | 0.79 | 96 | 1010.2 |
| 20260906103019 | 69 | 103 | 0.0 | 1.7 | 0.00 | 0.79 | 0.79 | 96 | 1010.2 |
| 20260906102518 | 69 | 103 | 0.9 | 1.7 | 0.00 | 0.79 | 0.79 | 96 | 1010.2 |
| 20260906102017 | 69 | 111 | 0.9 | 1.7 | 0.00 | 0.79 | 0.79 | 96 | 1010.2 |
| 20260906101516 | 69 | 108 | 0.9 | 0.9 | 0.00 | 0.79 | 0.79 | 96 | 1010.2 |
| 20260906101015 | 69 | 109 | 0.0 | 0.9 | 0.00 | 0.79 | 0.79 | 96 | 1010.2 |
| 20260906100514 | 69 | 101 | 0.0 | 0.9 | 0.00 | 0.79 | 0.79 | 96 | 1010.2 |
| 20260906100013 | 69 | 101 | 0.0 | 0.9 | 0.00 | 0.79 | 0.79 | 96 | 1010.2 |
| 20260906095512 | 69 | 98 | 0.0 | 0.9 | 0.00 | 0.79 | 0.79 | 96 | 1010.2 |
| 20260906094940 | 69 | 101 | 0.9 | 0.9 | 0.00 | 0.79 | 0.79 | 96 | 1009.8 |
| 20260906094439 | 69 | 102 | 0.0 | 1.7 | 0.00 | 0.79 | 0.79 | 96 | 1009.8 |
| 20260906093907 | 69 | 102 | 0.9 | 1.7 | 0.00 | 0.79 | 0.79 | 96 | 1009.8 |
| 20260906093333 | 69 | 115 | 0.0 | 0.9 | 0.00 | 0.79 | 0.79 | 96 | 1009.8 |
| 20260906092801 | 69 | 118 | 0.9 | 0.9 | 0.00 | 0.79 | 0.79 | 96 | 1009.8 |
| 20260906092259 | 69 | 112 | 0.9 | 0.9 | 0.00 | 0.79 | 0.79 | 96 | 1009.8 |
| 20260906091758 | 69 | 145 | 0.0 | 0.9 | 0.00 | 0.79 | 0.79 | 96 | 1009.8 |
| 20260906091257 | 69 | 145 | 0.0 | 0.9 | 0.00 | 0.79 | 0.79 | 96 | 1009.8 |
| 20260906090756 | 69 | 138 | 0.0 | 0.9 | 0.00 | 0.79 | 0.79 | 96 | 1009.8 |
| 20260906090255 | 69 | 137 | 0.9 | 0.9 | 0.00 | 0.79 | 0.79 | 96 | 1009.8 |
| 20260906085723 | 69 | 138 | 0.9 | 0.9 | 0.00 | 0.79 | 0.79 | 96 | 1009.8 |
| 20260906085222 | 70 | 138 | 0.0 | 0.9 | 0.00 | 0.79 | 0.79 | 96 | 1009.8 |
| 20260906084720 | 70 | 137 | 0.0 | 0.9 | 0.00 | 0.79 | 0.79 | 96 | 1009.8 |
| 20260906084219 | 70 | 137 | 0.9 | 0.9 | 0.00 | 0.79 | 0.79 | 96 | 1010.2 |
| 20260906083718 | 70 | 136 | 0.0 | 1.7 | 0.01 | 0.79 | 0.79 | 96 | 1010.2 |
| 20260906083217 | 70 | 137 | 0.9 | 1.7 | 0.01 | 0.79 | 0.79 | 96 | 1010.2 |
| 20260906082716 | 70 | 142 | 0.9 | 1.7 | 0.02 | 0.79 | 0.79 | 96 | 1010.5 |
| 20260906082215 | 70 | 129 | 0.9 | 1.7 | 0.03 | 0.79 | 0.79 | 96 | 1010.5 |
| 20260906081713 | 70 | 141 | 0.9 | 1.7 | 0.04 | 0.79 | 0.79 | 96 | 1010.5 |
| 20260906081212 | 70 | 105 | 0.9 | 1.7 | 0.08 | 0.79 | 0.79 | 96 | 1010.5 |
| 20260906080711 | 70 | 104 | 0.9 | 2.6 | 0.12 | 0.79 | 0.79 | 96 | 1010.2 |
| 20260906080210 | 71 | 131 | 0.0 | 4.3 | 0.13 | 0.79 | 0.79 | 96 | 1010.2 |
| 20260906075709 | 71 | 211 | 0.9 | 4.3 | 0.13 | 0.79 | 0.79 | 96 | 1010.2 |
| 20260906075207 | 71 | 231 | 0.9 | 4.3 | 0.13 | 0.79 | 0.79 | 96 | 1010.2 |
| 20260906074706 | 72 | 200 | 2.6 | 4.3 | 0.13 | 0.79 | 0.79 | 96 | 1010.5 |
| 20260906074205 | 72 | 187 | 0.0 | 0.9 | 0.13 | 0.79 | 0.79 | 96 | 1010.5 |
| 20260906073704 | 72 | 176 | 0.0 | 0.9 | 0.12 | 0.78 | 0.78 | 96 | 1011.2 |
| 20260906073203 | 72 | 176 | 0.0 | 0.9 | 0.11 | 0.77 | 0.77 | 96 | 1011.2 |
| 20260906072701 | 73 | 146 | 0.0 | 0.9 | 0.11 | 0.77 | 0.77 | 96 | 1011.2 |
| 20260906072200 | 74 | 180 | 0.0 | 0.0 | 0.10 | 0.76 | 0.76 | 96 | 1011.5 |
| 20260906071659 | 74 | 181 | 0.0 | 0.0 | 0.09 | 0.75 | 0.75 | 96 | 1011.5 |
| 20260906071126 | 74 | 184 | 0.0 | 0.0 | 0.05 | 0.71 | 0.71 | 96 | 1010.8 |
| 20260906070625 | 74 | 162 | 0.0 | 0.0 | 0.01 | 0.67 | 0.67 | 96 | 1010.8 |
| 20260906070051 | 73 | 166 | 0.0 | 0.0 | 0.00 | 0.66 | 0.66 | 96 | 1010.8 |
| 20260906065550 | 73 | 161 | 0.0 | 0.0 | 0.00 | 0.66 | 0.66 | 96 | 1010.8 |
| 20260906065049 | 73 | 105 | 0.0 | 0.0 | 0.00 | 0.66 | 0.66 | 96 | 1010.5 |
| 20260906064549 | 73 | 113 | 0.0 | 0.0 | 0.00 | 0.66 | 0.66 | 96 | 1010.2 |
| 20260906064015 | 73 | 113 | 0.0 | 0.0 | 0.00 | 0.66 | 0.66 | 96 | 1010.2 |
| 20260906063514 | 73 | 113 | 0.0 | 0.0 | 0.00 | 0.66 | 0.66 | 96 | 1010.2 |
| 20260906062941 | 73 | 113 | 0.0 | 0.0 | 0.00 | 0.66 | 0.66 | 96 | 1010.2 |
| 20260906062440 | 73 | 113 | 0.0 | 0.9 | 0.00 | 0.66 | 0.66 | 96 | 1010.2 |
| 20260906061939 | 73 | 113 | 0.0 | 0.9 | 0.00 | 0.66 | 0.66 | 96 | 1010.2 |
| 20260906061438 | 73 | 113 | 0.0 | 0.9 | 0.00 | 0.66 | 0.66 | 96 | 1010.2 |
| 20260906060937 | 73 | 110 | 0.9 | 0.9 | 0.00 | 0.66 | 0.66 | 96 | 1010.2 |
| 20260906060436 | 73 | 120 | 0.0 | 0.0 | 0.00 | 0.66 | 0.66 | 96 | 1010.5 |
| 20260906055935 | 73 | 118 | 0.0 | 0.0 | 0.00 | 0.66 | 0.66 | 96 | 1010.5 |
| 20260906055434 | 73 | 118 | 0.0 | 0.0 | 0.00 | 0.66 | 0.66 | 96 | 1010.2 |
| 20260906054933 | 73 | 119 | 0.0 | 0.0 | 0.00 | 0.66 | 0.66 | 96 | 1010.2 |
| 20260906054432 | 73 | 118 | 0.0 | 0.0 | 0.00 | 0.66 | 0.66 | 96 | 1010.2 |
| 20260906053858 | 73 | 118 | 0.0 | 0.0 | 0.00 | 0.66 | 0.66 | 96 | 1010.5 |
| 20260906053357 | 73 | 118 | 0.0 | 0.0 | 0.00 | 0.66 | 0.66 | 96 | 1010.5 |
| 20260906052856 | 73 | 118 | 0.0 | 0.0 | 0.00 | 0.66 | 0.66 | 96 | 1010.8 |
| 20260906052355 | 73 | 118 | 0.0 | 0.0 | 0.00 | 0.66 | 0.66 | 96 | 1010.8 |
| 20260906051854 | 73 | 119 | 0.0 | 0.0 | 0.00 | 0.66 | 0.66 | 96 | 1010.8 |
| 20260906051353 | 73 | 118 | 0.0 | 0.0 | 0.00 | 0.66 | 0.66 | 96 | 1010.5 |
| 20260906050820 | 73 | 118 | 0.0 | 0.0 | 0.00 | 0.66 | 0.66 | 96 | 1010.5 |
| 20260906050319 | 73 | 118 | 0.0 | 0.0 | 0.00 | 0.66 | 0.66 | 96 | 1010.5 |
| 20260906045818 | 73 | 118 | 0.0 | 0.0 | 0.00 | 0.66 | 0.66 | 96 | 1010.8 |
| 20260906045316 | 72 | 118 | 0.0 | 0.0 | 0.00 | 0.66 | 0.66 | 96 | 1010.8 |
| 20260906044815 | 72 | 118 | 0.0 | 0.0 | 0.00 | 0.66 | 0.66 | 96 | 1010.8 |
| 20260906044243 | 72 | 115 | 0.0 | 0.0 | 0.00 | 0.66 | 0.66 | 96 | 1010.8 |
| 20260906043711 | 72 | 115 | 0.0 | 0.0 | 0.00 | 0.66 | 0.66 | 96 | 1010.8 |
| 20260906043210 | 72 | 115 | 0.0 | 0.0 | 0.00 | 0.66 | 0.66 | 96 | 1011.2 |
| 20260906042637 | 72 | 115 | 0.0 | 0.0 | 0.00 | 0.66 | 0.66 | 96 | 1011.2 |
| 20260906042136 | 72 | 115 | 0.0 | 0.0 | 0.00 | 0.66 | 0.66 | 96 | 1011.2 |
| 20260906041635 | 72 | 115 | 0.0 | 0.0 | 0.00 | 0.66 | 0.66 | 96 | 1011.2 |
| 20260906041133 | 72 | 116 | 0.0 | 0.0 | 0.00 | 0.66 | 0.66 | 96 | 1010.8 |
| 20260906040631 | 72 | 115 | 0.0 | 0.0 | 0.00 | 0.66 | 0.66 | 96 | 1011.2 |
| 20260906040129 | 72 | 115 | 0.0 | 0.0 | 0.00 | 0.66 | 0.66 | 96 | 1011.2 |
| 20260906035628 | 72 | 115 | 0.0 | 0.0 | 0.00 | 0.66 | 0.66 | 96 | 1011.2 |
| 20260906035127 | 72 | 115 | 0.0 | 0.0 | 0.00 | 0.66 | 0.66 | 96 | 1010.8 |
| 20260906034626 | 73 | 115 | 0.0 | 0.0 | 0.00 | 0.66 | 0.66 | 96 | 1010.8 |
| 20260906034125 | 72 | 115 | 0.0 | 0.0 | 0.00 | 0.66 | 0.66 | 96 | 1011.2 |
| 20260906033553 | 73 | 115 | 0.0 | 0.0 | 0.00 | 0.66 | 0.66 | 96 | 1011.2 |
| 20260906033051 | 73 | 115 | 0.0 | 0.0 | 0.00 | 0.66 | 0.66 | 96 | 1011.2 |
| 20260906032550 | 72 | 115 | 0.0 | 0.0 | 0.00 | 0.66 | 0.66 | 96 | 1011.2 |
| 20260906032049 | 72 | 115 | 0.0 | 0.0 | 0.00 | 0.66 | 0.66 | 96 | 1011.2 |
| 20260906031517 | 72 | 115 | 0.0 | 0.0 | 0.00 | 0.66 | 0.66 | 96 | 1011.2 |
| 20260906030944 | 72 | 113 | 0.0 | 0.0 | 0.00 | 0.66 | 0.66 | 96 | 1011.2 |
| 20260906030442 | 72 | 113 | 0.0 | 0.0 | 0.00 | 0.66 | 0.66 | 96 | 1011.2 |
| 20260906025941 | 72 | 113 | 0.0 | 0.0 | 0.00 | 0.66 | 0.66 | 96 | 1010.8 |
| 20260906025440 | 72 | 113 | 0.0 | 0.0 | 0.00 | 0.66 | 0.66 | 96 | 1010.8 |
| 20260906024938 | 72 | 113 | 0.0 | 0.0 | 0.00 | 0.66 | 0.66 | 96 | 1010.8 |
| 20260906024333 | 72 | 113 | 0.0 | 0.0 | 0.00 | 0.66 | 0.66 | 96 | 1010.8 |
| 20260906023800 | 72 | 113 | 0.0 | 0.0 | 0.00 | 0.66 | 0.66 | 96 | 1010.5 |
| 20260906023259 | 72 | 113 | 0.0 | 0.0 | 0.00 | 0.66 | 0.66 | 96 | 1010.5 |
| 20260906022756 | 72 | 113 | 0.0 | 0.0 | 0.00 | 0.66 | 0.66 | 96 | 1010.5 |
| 20260906022255 | 73 | 113 | 0.0 | 0.0 | 0.00 | 0.66 | 0.66 | 96 | 1010.5 |
| 20260906021722 | 73 | 113 | 0.0 | 0.0 | 0.00 | 0.66 | 0.66 | 95 | 1010.2 |
| 20260906021149 | 73 | 113 | 0.0 | 0.0 | 0.00 | 0.66 | 0.66 | 95 | 1010.2 |
| 20260906020648 | 73 | 113 | 0.0 | 0.0 | 0.00 | 0.66 | 0.66 | 95 | 1010.2 |
| 20260906020147 | 73 | 113 | 0.0 | 0.0 | 0.00 | 0.66 | 0.66 | 95 | 1010.2 |
| 20260906015645 | 73 | 113 | 0.0 | 0.0 | 0.00 | 0.66 | 0.66 | 95 | 1010.2 |
| 20260906015144 | 73 | 113 | 0.0 | 0.0 | 0.00 | 0.66 | 0.66 | 95 | 1010.2 |
| 20260906014643 | 73 | 113 | 0.0 | 0.0 | 0.00 | 0.66 | 0.66 | 95 | 1010.2 |
| 20260906014142 | 73 | 111 | 0.0 | 0.0 | 0.00 | 0.66 | 0.66 | 95 | 1010.2 |
| 20260906013642 | 73 | 111 | 0.0 | 0.0 | 0.00 | 0.66 | 0.66 | 95 | 1009.8 |
| 20260906013141 | 73 | 111 | 0.0 | 0.0 | 0.00 | 0.66 | 0.66 | 95 | 1009.8 |
| 20260906012640 | 73 | 111 | 0.0 | 0.0 | 0.00 | 0.66 | 0.66 | 95 | 1009.8 |
| 20260906012138 | 73 | 112 | 0.0 | 0.0 | 0.00 | 0.66 | 0.66 | 95 | 1009.8 |
| 20260906011637 | 73 | 112 | 0.0 | 0.0 | 0.00 | 0.66 | 0.66 | 95 | 1009.8 |
| 20260906011136 | 73 | 111 | 0.0 | 0.0 | 0.00 | 0.66 | 0.66 | 95 | 1010.2 |
| 20260906010635 | 73 | 111 | 0.0 | 0.0 | 0.00 | 0.66 | 0.66 | 95 | 1010.2 |
| 20260906010134 | 73 | 111 | 0.0 | 0.0 | 0.00 | 0.66 | 0.66 | 95 | 1010.2 |
| 20260906005601 | 73 | 105 | 0.0 | 0.0 | 0.00 | 0.66 | 0.66 | 95 | 1010.2 |
| 20260906005100 | 73 | 103 | 0.0 | 0.0 | 0.00 | 0.66 | 0.66 | 95 | 1010.2 |
| 20260906004559 | 73 | 100 | 0.0 | 0.0 | 0.00 | 0.66 | 0.66 | 95 | 1010.2 |
| 20260906004028 | 74 | 100 | 0.0 | 0.0 | 0.00 | 0.66 | 0.66 | 95 | 1010.2 |
| 20260906003527 | 74 | 100 | 0.0 | 0.0 | 0.00 | 0.66 | 0.66 | 95 | 1009.8 |
| 20260906003025 | 74 | 100 | 0.0 | 0.0 | 0.00 | 0.66 | 0.66 | 95 | 1010.2 |
| 20260906002453 | 74 | 100 | 0.0 | 0.0 | 0.00 | 0.66 | 0.66 | 95 | 1010.2 |
| 20260906001952 | 74 | 100 | 0.0 | 0.0 | 0.00 | 0.66 | 0.66 | 95 | 1010.2 |
| 20260906001451 | 74 | 101 | 0.0 | 0.0 | 0.00 | 0.66 | 0.66 | 95 | 1010.2 |
| 20260906000950 | 74 | 98 | 0.0 | 0.0 | 0.00 | 0.66 | 0.66 | 95 | 1010.2 |
| 20260906000448 | 75 | 99 | 0.0 | 0.0 | 0.00 | 0.66 | 0.66 | 95 | 1010.2 |
| 20260905235946 | 75 | 99 | 0.0 | 0.0 | 0.00 | 0.66 | 0.66 | 95 | 1010.2 |
| 20260905235445 | 75 | 98 | 0.0 | 0.9 | 0.00 | 0.66 | 0.66 | 95 | 1010.2 |
| 20260905234944 | 76 | 99 | 0.0 | 0.9 | 0.00 | 0.66 | 0.66 | 95 | 1010.2 |
| 20260905234443 | 76 | 98 | 0.0 | 0.9 | 0.00 | 0.66 | 0.66 | 95 | 1010.2 |
| 20260905233942 | 76 | 219 | 0.0 | 0.9 | 0.00 | 0.66 | 0.66 | 95 | 1010.2 |
| 20260905233441 | 76 | 215 | 0.0 | 0.0 | 0.00 | 0.66 | 0.66 | 95 | 1010.2 |
| 20260905232940 | 76 | 215 | 0.0 | 0.0 | 0.00 | 0.66 | 0.66 | 95 | 1009.8 |
| 20260905232439 | 76 | 215 | 0.0 | 0.0 | 0.00 | 0.66 | 0.66 | 95 | 1009.8 |
| 20260905231938 | 76 | 215 | 0.0 | 0.9 | 0.00 | 0.66 | 0.66 | 95 | 1009.8 |
| 20260905231406 | 76 | 216 | 0.0 | 0.9 | 0.00 | 0.66 | 0.66 | 95 | 1009.8 |
| 20260905230905 | 76 | 215 | 0.0 | 0.9 | 0.00 | 0.66 | 0.66 | 95 | 1009.8 |
| 20260905230403 | 76 | 215 | 0.0 | 0.9 | 0.00 | 0.66 | 0.66 | 95 | 1009.8 |
| 20260905225902 | 76 | 224 | 0.9 | 0.9 | 0.00 | 0.66 | 0.66 | 95 | 1009.8 |
| 20260905225330 | 76 | 82 | 0.0 | 0.0 | 0.00 | 0.66 | 0.66 | 95 | 1009.8 |
| 20260905224829 | 77 | 82 | 0.0 | 0.0 | 0.00 | 0.66 | 0.66 | 95 | 1009.5 |
| 20260905224329 | 77 | 82 | 0.0 | 0.0 | 0.00 | 0.66 | 0.66 | 95 | 1009.8 |
| 20260905223826 | 77 | 82 | 0.0 | 0.0 | 0.00 | 0.66 | 0.66 | 95 | 1009.8 |
| 20260905223254 | 76 | 82 | 0.0 | 0.9 | 0.00 | 0.66 | 0.66 | 95 | 1009.8 |
| 20260905222752 | 76 | 82 | 0.0 | 0.9 | 0.00 | 0.66 | 0.66 | 95 | 1009.8 |
| 20260905222249 | 76 | 82 | 0.0 | 0.9 | 0.00 | 0.66 | 0.66 | 95 | 1009.8 |
| 20260905221748 | 76 | 82 | 0.0 | 0.0 | 0.00 | 0.66 | 0.66 | 95 | 1009.8 |
| 20260905221216 | 76 | 77 | 0.0 | 0.0 | 0.00 | 0.66 | 0.66 | 95 | 1009.8 |
| 20260905220715 | 76 | 77 | 0.0 | 0.0 | 0.00 | 0.66 | 0.66 | 95 | 1009.8 |
| 20260905220214 | 76 | 76 | 0.0 | 0.0 | 0.00 | 0.66 | 0.66 | 95 | 1009.8 |
| 20260905215712 | 76 | 77 | 0.0 | 0.0 | 0.00 | 0.66 | 0.66 | 95 | 1009.8 |
| 20260905215108 | 76 | 76 | 0.0 | 0.0 | 0.00 | 0.66 | 0.66 | 95 | 1009.8 |
| 20260905214606 | 76 | 77 | 0.0 | 0.0 | 0.00 | 0.66 | 0.66 | 95 | 1009.8 |
| 20260905214104 | 76 | 76 | 0.0 | 0.0 | 0.00 | 0.66 | 0.66 | 95 | 1010.2 |
| 20260905213603 | 76 | 77 | 0.0 | 0.0 | 0.00 | 0.66 | 0.66 | 95 | 1010.2 |
| 20260905213102 | 76 | 76 | 0.0 | 0.0 | 0.00 | 0.66 | 0.66 | 95 | 1009.8 |
| 20260905212530 | 75 | 77 | 0.0 | 0.9 | 0.00 | 0.66 | 0.66 | 95 | 1009.8 |
| 20260905212029 | 74 | 77 | 0.0 | 0.9 | 0.00 | 0.66 | 0.66 | 95 | 1010.2 |
| 20260905211528 | 73 | 77 | 0.0 | 0.9 | 0.00 | 0.66 | 0.66 | 95 | 1009.8 |
| 20260905211028 | 73 | 77 | 0.9 | 0.9 | 0.00 | 0.66 | 0.66 | 95 | 1010.2 |
| 20260905210526 | 73 | 68 | 0.0 | 0.0 | 0.00 | 0.66 | 0.66 | 95 | 1010.2 |
| 20260905210026 | 73 | 68 | 0.0 | 0.0 | 0.00 | 0.66 | 0.66 | 95 | 1010.5 |
| 20260905205525 | 73 | 68 | 0.0 | 0.9 | 0.00 | 0.66 | 0.66 | 95 | 1010.8 |
| 20260905205024 | 73 | 68 | 0.0 | 0.9 | 0.00 | 0.66 | 0.66 | 95 | 1010.8 |
| 20260905204523 | 73 | 68 | 0.0 | 0.9 | 0.00 | 0.66 | 0.66 | 95 | 1010.8 |
| 20260905204021 | 73 | 68 | 0.9 | 0.9 | 0.00 | 0.66 | 0.66 | 95 | 1010.5 |
| 20260905203449 | 73 | 65 | 0.0 | 0.9 | 0.00 | 0.66 | 0.66 | 95 | 1010.8 |
| 20260905202916 | 73 | 65 | 0.0 | 0.9 | 0.00 | 0.66 | 0.66 | 95 | 1010.8 |
| 20260905202415 | 73 | 62 | 0.0 | 0.9 | 0.00 | 0.66 | 0.66 | 95 | 1011.2 |
| 20260905201913 | 73 | 62 | 0.0 | 0.9 | 0.00 | 0.66 | 0.66 | 95 | 1011.2 |
| 20260905201413 | 73 | 63 | 0.0 | 0.9 | 0.00 | 0.66 | 0.66 | 95 | 1011.2 |
| 20260905200910 | 73 | 63 | 0.0 | 0.9 | 0.00 | 0.66 | 0.66 | 95 | 1011.2 |
| 20260905200408 | 73 | 78 | 0.0 | 0.0 | 0.00 | 0.66 | 0.66 | 95 | 1011.5 |
| 20260905195805 | 73 | 79 | 0.0 | 0.0 | 0.01 | 0.66 | 0.66 | 95 | 1011.2 |
| 20260905195306 | 73 | 56 | 0.0 | 0.0 | 0.03 | 0.66 | 0.66 | 95 | 1011.2 |
| 20260905194803 | 73 | 57 | 0.0 | 0.0 | 0.09 | 0.66 | 0.66 | 95 | 1011.2 |
| 20260905194301 | 73 | 57 | 0.0 | 0.0 | 0.18 | 0.66 | 0.66 | 95 | 1011.2 |
| 20260905193801 | 73 | 57 | 0.0 | 0.9 | 0.32 | 0.66 | 0.66 | 95 | 1010.8 |
| 20260905193227 | 73 | 250 | 0.0 | 0.9 | 0.42 | 0.66 | 0.66 | 95 | 1010.8 |
| 20260905192726 | 73 | 226 | 0.0 | 0.9 | 0.56 | 0.66 | 0.66 | 95 | 1011.2 |
| 20260905192225 | 72 | 68 | 0.0 | 0.9 | 0.66 | 0.66 | 0.66 | 95 | 1011.2 |
| 20260905191724 | 72 | 250 | 0.0 | 0.0 | 0.66 | 0.66 | 0.66 | 95 | 1011.2 |
| 20260905191222 | 72 | 250 | 0.0 | 0.9 | 0.66 | 0.66 | 0.66 | 95 | 1011.2 |
| 20260905190721 | 72 | 226 | 0.0 | 1.7 | 0.66 | 0.66 | 0.66 | 95 | 1011.2 |
| 20260905190219 | 72 | 225 | 0.0 | 1.7 | 0.66 | 0.66 | 0.66 | 95 | 1011.5 |
| 20260905185718 | 72 | 215 | 0.0 | 2.6 | 0.65 | 0.65 | 0.65 | 94 | 1011.9 |
| 20260905185146 | 73 | 228 | 0.9 | 2.6 | 0.61 | 0.61 | 0.61 | 93 | 1012.2 |
| 20260905184645 | 74 | 84 | 0.9 | 3.5 | 0.55 | 0.55 | 0.55 | 91 | 1012.5 |
| 20260905184144 | 75 | 198 | 0.9 | 8.7 | 0.44 | 0.44 | 0.44 | 89 | 1013.5 |
| 20260905183643 | 77 | 73 | 1.7 | 8.7 | 0.32 | 0.32 | 0.32 | 86 | 1013.5 |
| 20260905183142 | 80 | 187 | 1.7 | 9.6 | 0.20 | 0.20 | 0.20 | 82 | 1013.2 |
| 20260905182609 | 84 | 12 | 2.6 | 9.6 | 0.08 | 0.08 | 0.08 | 78 | 1013.2 |
| 20260905182108 | 86 | 326 | 0.9 | 8.7 | 0.00 | 0.00 | 0.00 | 75 | 1012.9 |
| 20260905181607 | 88 | 51 | 5.2 | 7.8 | 0.00 | 0.00 | 0.00 | 77 | 1011.9 |